Tracking 23752 objects as of 24-Oct-2021
HD Live streaming from Space Station
objects crossing your sky now

FREGAT DEB

Track FREGAT DEB now!
10-day predictions


NORAD ID: 45640
Int'l Code: 2011-037AG
Perigee: 520.8 km
Apogee: 4,649.5 km
Inclination: 51.3 °
Period: 140.6 minutes
Semi major axis: 8956 km
RCS: Unknown
Launch date: July 18, 2011
Source: Commonwealth of Independent States (former USSR) (CIS)
Launch site: TYURATAM MISSILE AND SPACE COMPLEX (TTMTR)

Note: This is SATELLITE DEBRIS
aabbcc
Your satellite tracking list
Your tracking list is empty




NASA's NSSDC Master Catalog

Two Line Element Set (TLE):
1 45640U 11037AG  21296.99480306  .00239511  00000-0  13305+0 0  9992
2 45640  51.2974 156.7462 2304961  33.7387 339.0735 10.24292594 50548
Source of the keplerian elements: AFSPC